SHENZHOU-20 (SZ-20)

Last updated on Sun Dec 07 2025 00:02:11 GMT+0000 (Coordinated Universal Time)

1 63632U 25082A 25340.62885415 .00028802 00000+0 36467-3 0 9998 2 63632 41.4683 53.7961 0009534 342.8614 17.1901 15.58799060255302
UTC large
Height (km)
Speed (km/s)
/
Latitude / Longitude
Inclination (degrees)
Orbital Period (minutes)
Azimuth
Elevation
Range (km)
Doppler Factor

Next 0 passes for location: London (51.5072 / 0.1276)

Sorry there are no passes over London.